Location: Castelbiague
(43.0361°N, 0.9246°E)
Time: 08:37:37
(UTC+00:00)

USA 267 - Pass Details

Date: 17 June 2021
Orbit: 1102 x 1106 km, 123.0° (Epoch: 24 July)

Event Time Altitude Azimuth Distance (km) Brightness Sun altitude
Exits shadow 23:14:43 20° 113° (ESE) 2,322 4.7 -22.8°
Maximum altitude 23:19:28 67° 35° (NE) 1,184 3.5 -23.0°
Drops below altitude 10° 23:25:57 10° 314° (NW) 2,967 6.2 -23.2°
Sets 23:28:27 0° 312° (NW) 3,928 6.9 -23.2°
